Location: Unspecified
(40.7945°N, 111.1337°W)
Time: 16:16:46
(UTC-06:00)

Vanguard 1 - Pass Details

Date: 18 June 2019
Orbit: 653 x 3830 km, 34.3° (Epoch: 12 October)

Event Time Altitude Azimuth Distance (km) Brightness Sun altitude
Exits shadow 05:00:27 10° 231° (SW) 5,915 13.3 -8.7°
Reaches altitude 10° 05:00:44 10° 230° (SW) 5,841 13.3 -8.7°
Maximum altitude 05:15:33 46° 165° (SSE) 2,454 11.9 -6.5°
Drops below altitude 10° 05:23:51 10° 95° (E) 3,360 13.6 -5.3°
Sets 05:26:14 0° 88° (E) 4,045 14.2 -5.0°
